Location: Remedello Sotto
(45.2500°N, 10.3667°E)
Time: 05:43:19
(UTC+00:00)

Cosmos 2360 Rocket - Pass Details

Date: 03 February 2023
Orbit: 832 x 846 km, 71.0° (Epoch: 29 March)

Event Time Altitude Azimuth Distance (km) Brightness Sun altitude
Rises 18:01:36 0° 202° (SSW) 3,371 5.7 -16.7°
Reaches altitude 10° 18:04:01 10° 202° (SSW) 2,443 5.0 -17.1°
Maximum altitude 18:09:38 85° 115° (ESE) 849 2.1 -18.1°
Enters shadow 18:15:03 11° 27° (NNE) 2,368 4.2 -19.0°
